ПЕТРИЧ - 3 етаж/Градина/Спалня Measurements

Back to Overview

Timestamp Temp In Hum In Temp 1 Hum 1 Temp 2 Hum 2 Temp 3 Hum 3
2/25/2021 4:00:29 AM 25,9 C 27.0% 5,3 C 84.0% 7,2 C 76.0% 26,7 C 27.0%
2/25/2021 3:53:29 AM 25,9 C 27.0% 5,3 C 83.0% 7,5 C 75.0% 26,8 C 27.0%
2/25/2021 3:46:29 AM 26,0 C 27.0% 5,4 C 83.0% 7,4 C 76.0% 26,8 C 27.0%
2/25/2021 3:39:33 AM 26,0 C 27.0% 5,3 C 83.0% 7,2 C 76.0% 26,8 C 27.0%
2/25/2021 3:32:30 AM 26,0 C 27.0% 5,5 C 82.0% 7,3 C 76.0% 26,8 C 27.0%
2/25/2021 3:25:27 AM 26,1 C 27.0% 5,6 C 82.0% 7,4 C 76.0% 26,8 C 27.0%
2/25/2021 3:18:30 AM 26,0 C 27.0% 5,6 C 82.0% 7,4 C 75.0% 26,8 C 27.0%
2/25/2021 3:11:29 AM 26,1 C 27.0% 5,7 C 82.0% 7,6 C 75.0% 26,8 C 27.0%
2/25/2021 3:04:28 AM 26,1 C 27.0% 5,8 C 82.0% 7,6 C 75.0% 26,8 C 27.0%
2/25/2021 2:57:29 AM 26,1 C 27.0% 5,7 C 82.0% 7,6 C 75.0% 26,9 C 27.0%
2/25/2021 2:50:27 AM 26,1 C 27.0% 5,9 C 81.0% 7,7 C 75.0% 26,9 C 27.0%
2/25/2021 2:43:27 AM 26,1 C 27.0% 5,9 C 81.0% 7,7 C 75.0% 26,9 C 27.0%
2/25/2021 2:36:29 AM 26,1 C 27.0% 6,1 C 80.0% 7,8 C 74.0% 26,9 C 27.0%
2/25/2021 2:29:32 AM 26,2 C 27.0% 6,1 C 80.0% 7,7 C 75.0% 26,9 C 27.0%
2/25/2021 2:22:27 AM 26,2 C 27.0% 6,2 C 80.0% 7,5 C 75.0% 26,9 C 27.0%
2/25/2021 2:15:27 AM 26,3 C 27.0% 6,3 C 81.0% 7,4 C 76.0% 26,9 C 27.0%
2/25/2021 2:08:30 AM 26,4 C 27.0% 6,6 C 79.0% 7,6 C 75.0% 26,9 C 27.0%
2/25/2021 2:01:28 AM 26,4 C 27.0% 6,8 C 80.0% 8,0 C 74.0% 27,0 C 27.0%
2/25/2021 1:54:28 AM 26,5 C 27.0% 6,9 C 78.0% 8,1 C 74.0% 27,0 C 27.0%
2/25/2021 1:47:30 AM 26,5 C 27.0% 6,7 C 80.0% 8,2 C 73.0% 27,0 C 27.0%
2/25/2021 1:40:30 AM 26,5 C 27.0% 6,6 C 78.0% 8,2 C 73.0% 27,0 C 27.0%
2/25/2021 1:33:25 AM 26,5 C 27.0% 6,6 C 78.0% 8,4 C 72.0% 27,0 C 27.0%
2/25/2021 1:26:29 AM 26,5 C 27.0% 6,7 C 78.0% 8,5 C 72.0% 27,0 C 27.0%
2/25/2021 1:19:28 AM 26,5 C 27.0% 6,9 C 77.0% 8,6 C 72.0% 27,0 C 27.0%
2/25/2021 1:12:26 AM 26,5 C 27.0% 7,0 C 77.0% 8,6 C 72.0% 27,1 C 27.0%
2/25/2021 1:05:28 AM 26,6 C 27.0% 7,2 C 76.0% 8,5 C 72.0% 27,1 C 27.0%
2/25/2021 12:58:30 AM 26,6 C 27.0% 7,1 C 76.0% 8,5 C 71.0% 27,1 C 27.0%
2/25/2021 12:51:31 AM 26,7 C 27.0% 7,2 C 76.0% 8,4 C 72.0% 27,1 C 27.0%
2/25/2021 12:44:29 AM 26,7 C 27.0% 7,2 C 75.0% 8,5 C 71.0% 27,1 C 27.0%
2/25/2021 12:37:26 AM 26,8 C 27.0% 7,7 C 75.0% 8,6 C 72.0% 27,1 C 27.0%
2/25/2021 12:30:30 AM 26,8 C 27.0% 8,3 C 73.0% 8,9 C 71.0% 27,1 C 28.0%
2/25/2021 12:23:27 AM 26,9 C 27.0% 7,5 C 75.0% 9,1 C 71.0% 27,1 C 27.0%
2/25/2021 12:16:30 AM 26,9 C 27.0% 7,6 C 75.0% 9,2 C 70.0% 27,1 C 27.0%
2/25/2021 12:09:28 AM 26,9 C 27.0% 7,7 C 75.0% 9,2 C 70.0% 27,2 C 27.0%
2/25/2021 12:02:25 AM 27,0 C 27.0% 7,7 C 74.0% 9,2 C 70.0% 27,2 C 27.0%